Powrót do katalogu

CZ-8 R/B

AktywnyPO
NORAD 69419·ROCKET BODY·🇨🇳 China

Wystrzelony Jun 5, 2026 z Wenchang Space Launch Site

Loading…

Następne Przeloty (najbliższe 24 godziny)

TLE

ŚwieżeSource: Space-Track

Epoka: Sep 14, 2026, 20:22 UTC

1 69419U 26125U   26257.84907829  .00000168  00000-0  46976-4 0  9995
2 69419  88.9903 269.8542 0069752 138.9421 221.7060 14.39889757 14623

Śledź CZ-8 R/B w czasie rzeczywistym z AllMySat

Download on the App Store